Location: Poughquag
(41.6090°N, 73.6820°W)
Time: 22:17:47
(UTC-05:00)

N. Korean satellite - Pass Details

Date: 02 February 2021
Orbit: 451 x 503 km, 97.2° (Epoch: 24 February)

Event Time Altitude Azimuth Distance (km) Brightness Sun altitude
Rises 17:43:41 0° 215° (SW) 2,556 11.1 -6.4°
Reaches altitude 10° 17:47:21 10° 255° (WSW) 1,669 11.1 -7.1°
Maximum altitude 17:48:14 11° 269° (W) 1,621 10.7 -7.2°
Drops below altitude 10° 17:49:08 10° 284° (WNW) 1,665 10.4 -7.4°
Sets 17:52:46 0° 323° (NW) 2,536 10.5 -8.0°
